This demonstration page uses our WeatherBlox Daily Observations layout. Learn more.

Left ArrowRight Arrow

39.51506, -84.39828

Hourly Observations for August 22, 2021

Temp ( °F °C ) Dew Point ( °F °C ) Humidity (%) Winds ( mph kmh ) Pressure ( in mb ) Visibility ( mi km ) Precip ( " mm )
12:15 am 00:15 Clear with Mist and Fog 72 22 72 22 100 100 N N/A 29.91 1013 7 11 N/A
12:35 am 00:35 Hazy 70 21 N/A N/A N N/A 29.91 1013 5 8 N/A
12:55 am 00:55 Hazy 70 21 N/A N/A N N/A 29.91 1013 5 8 N/A
1:15 am 01:15 Clear with Mist and Fog 68 20 N/A N/A N N/A 29.92 1013 4 6 N/A
1:35 am 01:35 Hazy 68 20 N/A N/A N 3 6 29.92 1013 5 8 N/A
1:55 am 01:55 Hazy 68 20 N/A N/A N N/A 29.92 1013 5 8 N/A
2:15 am 02:15 Clear with Mist and Fog 68 20 N/A N/A N N/A 29.92 1013 3 5 N/A
2:35 am 02:35 Hazy 68 20 N/A N/A N N/A 29.92 1013 4 6 N/A
2:55 am 02:55 Hazy 68 20 N/A N/A NNE 5 7 29.92 1013 4 6 N/A
3:15 am 03:15 Hazy 68 20 N/A N/A N 3 6 29.93 1014 4 6 N/A
3:35 am 03:35 Clear with Mist and Fog 68 20 N/A N/A N N/A 29.93 1014 3 4 N/A
3:55 am 03:55 Clear with Mist and Fog 66 19 N/A N/A N N/A 29.94 1014 3 5 N/A
4:15 am 04:15 Clear with Mist and Fog 66 19 N/A N/A NNE 5 7 29.94 1014 4 6 N/A
4:35 am 04:35 Hazy 66 19 N/A N/A N N/A 29.94 1014 4 6 N/A
4:55 am 04:55 Clear with Mist and Fog 66 19 N/A N/A NNE 3 6 29.95 1014 4 6 N/A
5:15 am 05:15 Clear with Mist and Fog 66 19 N/A N/A N N/A 29.95 1014 4 6 N/A
5:35 am 05:35 Clear with Mist and Fog 66 19 N/A N/A N 3 6 29.95 1014 3 5 N/A
5:55 am 05:55 Clear with Mist and Fog 66 19 N/A N/A NNE 3 6 29.95 1014 3 4 N/A
6:15 am 06:15 Clear with Mist and Fog 66 19 N/A N/A N 3 6 29.95 1014 3 5 N/A
6:35 am 06:35 Clear with Mist and Fog 66 19 N/A N/A NE 3 6 29.95 1014 4 6 N/A
6:55 am 06:55 Clear with Mist and Fog 64 18 N/A N/A N N/A 29.95 1014 2 3 N/A
7:15 am 07:15 Mostly Cloudy with Mist and Fog 64 18 N/A N/A N N/A 29.96 1015 2 3 N/A
7:35 am 07:35 Sunny with Mist and Fog 66 19 N/A N/A N 3 6 29.96 1014 2 3 N/A
7:55 am 07:55 Sunny with Mist and Fog 66 19 N/A N/A ENE 3 6 29.97 1015 3 4 N/A
8:15 am 08:15 Sunny with Mist and Fog 68 20 N/A N/A NE 3 6 29.97 1015 4 6 N/A
8:35 am 08:35 Hazy 70 21 N/A N/A N N/A 29.97 1015 4 6 N/A
8:55 am 08:55 Sunny with Mist and Fog 72 22.2 72 22 99 99 N N/A 29.98 1015 5 8 N/A
9:15 am 09:15 Sunny with Mist and Fog 75 23.8 72 22.3 91 91 N N/A 29.98 1015 7 11 N/A
9:35 am 09:35 Sunny 76 24.7 72 22.4 87 87 ENE 3 6 29.97 1015 10 16 N/A
9:55 am 09:55 Sunny 78 25.7 72 22.3 82 82 E 5 7 29.97 1015 10 16 N/A
10:15 am 10:15 Sunny 80 26.7 72 22.2 76 76 NNE 3 6 29.97 1015 10 16 N/A
10:35 am 10:35 Sunny 82 27.9 71 21.9 70 70 ENE 3 6 29.97 1015 10 16 N/A
10:55 am 10:55 Sunny 82 28 71 21.7 69 69 N N/A 29.97 1015 10 16 N/A
11:15 am 11:15 Sunny 85 29.2 72 22 65 65 NE 3 6 29.96 1015 10 16 N/A
11:35 am 11:35 Sunny 85 29.6 69 20.5 58 58 NNE 3 6 29.97 1015 10 16 N/A
11:55 am 11:55 Sunny 86 30.1 68 20 55 55 SE 3 6 29.96 1015 10 16 N/A
12:15 pm 12:15 Sunny 87 30.5 67 19.4 52 52 SE 6 9 29.96 1015 10 16 N/A
12:35 pm 12:35 Sunny 88 31 67 19.6 51 51 SE 3 6 29.95 1014 10 16 N/A
12:55 pm 12:55 Sunny 89 31.4 68 20 51 51 N N/A 29.94 1014 10 16 N/A
1:15 pm 13:15 Sunny 89 31.4 67 19.2 48 48 SE 3 6 29.94 1014 10 16 N/A
1:35 pm 13:35 Sunny 90 32 66 19 46 46 ENE 6 9 29.94 1014 10 16 N/A
1:55 pm 13:55 Sunny 91 32.6 65 18.5 43 43 ESE 3 6 29.93 1013 10 16 N/A
2:15 pm 14:15 Sunny 90 32 65 18.2 44 44 N N/A 29.93 1013 10 16 N/A
2:35 pm 14:35 Sunny 91 32.6 65 18.2 42 42 ENE 5 7 29.93 1013 10 16 N/A
2:55 pm 14:55 Sunny 91 32.9 65 18.5 42 42 SE 3 6 29.93 1013 10 16 N/A
3:15 pm 15:15 Partly Cloudy 90 32.4 65 18.4 43 43 W 5 7 29.92 1013 10 16 N/A
3:35 pm 15:35 Mostly Cloudy 90 32.2 67 19.6 47 47 WNW 7 11 29.92 1013 10 16 N/A
3:55 pm 15:55 Mostly Cloudy 88 31.3 67 19.7 50 50 NNW 8 13 29.92 1013 10 16 N/A
4:15 pm 16:15 Sunny 88 30.9 68 20.1 53 53 W 6 9 29.92 1013 10 16 N/A
4:35 pm 16:35 Partly Cloudy 90 32.3 67 19.7 47 47 NW 7 11 29.91 1013 10 16 N/A
4:55 pm 16:55 Cloudy 89 31.8 67 19.7 49 49 WNW 7 11 29.91 1013 10 16 N/A
5:15 pm 17:15 Partly Cloudy 88 31.2 68 20 51 51 NNW 5 7 29.91 1013 10 16 N/A
5:35 pm 17:35 Sunny 90 32 67 19.5 48 48 NNW 3 6 29.91 1013 10 16 N/A
5:55 pm 17:55 Sunny 90 32.4 67 19.3 46 46 NW 3 6 29.91 1013 10 16 N/A
6:15 pm 18:15 Sunny 90 32 66 18.9 46 46 N 7 11 29.90 1012 10 16 N/A
6:35 pm 18:35 Sunny 89 31.7 67 19.2 47 47 NW 7 11 29.91 1013 10 16 N/A
6:55 pm 18:55 Sunny 88 31.2 67 19.6 50 50 NNW 7 11 29.91 1013 10 16 N/A
7:15 pm 19:15 Sunny 87 30.6 68 20.2 54 54 NNW 6 9 29.91 1013 10 16 N/A
7:35 pm 19:35 Sunny 86 29.9 70 20.9 59 59 NNW 3 6 29.91 1013 10 16 N/A
7:55 pm 19:55 Sunny 83 28.1 74 23.4 76 76 N N/A 29.92 1013 10 16 N/A
8:15 pm 20:15 Sunny 80 26.6 73 23 81 81 N N/A 29.92 1013 10 16 N/A
8:35 pm 20:35 Clear 79 25.9 75 23.7 88 88 N N/A 29.92 1013 10 16 N/A
8:55 pm 20:55 Clear 76 24.4 74 23.3 94 94 N N/A 29.93 1014 10 16 N/A
9:15 pm 21:15 Clear 76 24.2 73 22.9 92 92 N N/A 29.93 1014 10 16 N/A
9:35 pm 21:35 Clear 74 23.6 73 22.7 95 95 N N/A 29.94 1014 10 16 N/A
9:55 pm 21:55 Clear 74 23.6 73 22.5 94 94 NE 3 6 29.94 1014 10 16 N/A
10:15 pm 22:15 Clear 74 23.4 73 22.9 97 97 NE 3 6 29.95 1014 10 16 N/A
10:35 pm 22:35 Clear 73 22.6 73 22.5 99 99 NNE 3 6 29.95 1014 10 16 N/A
10:55 pm 22:55 Clear 72 22 72 22 100 100 N N/A 29.95 1014 10 16 N/A
11:15 pm 23:15 Clear 72 22 72 22 100 100 NW 3 6 29.95 1014 10 16 N/A
11:35 pm 23:35 Clear 72 22 N/A N/A N N/A 29.95 1014 10 16 N/A
11:55 pm 23:55 Clear 72 22 N/A N/A undefined N/A 29.95 1014 10 16 N/A

Powered by AerisWeather